Wind_Speed
58 58 59 60 61 61 61 61 61 61 61 60 60 59 59 58 56 55 55 55 56 58 60 63 65 66 67 66 64 59 55 53 54 55 55 55 54 54 53 53 53 54 55 56 56 56 56 57 57 57 58 58 58 58 57 57 57 57 58 58 59 60 61 62 62 62 62 62 62 61 61 63 67 68 69 70 70 70 69 70 72 75 78 78 77
60 61 62 63 63 63 63 63 62 62 62 62 61 60 60 58 57 55 54 55 57 60 62 64 66 68 68 66 63 58 53 52 53 54 54 54 54 54 54 54 54 55 56 56 57 57 56 56 55 56 56 56 57 57 56 56 57 57 58 58 59 60 61 61 61 62 62 62 61 61 62 66 69 70 71 71 71 71 71 73 76 78 78 77 76
62 62 63 63 63 64 64 63 63 63 63 63 62 61 59 58 57 55 55 56 58 61 64 66 67 67 66 64 61 57 52 51 52 53 54 54 54 55 56 56 56 57 57 57 56 56 55 54 53 53 54 54 55 55 55 56 56 57 57 58 59 59 59 60 60 61 61 62 62 63 65 68 70 71 71 72 72 72 73 76 78 78 77 76 77
62 62 62 62 63 63 64 64 63 62 62 62 62 61 60 59 58 56 57 58 60 63 65 65 64 63 62 61 59 55 52 51 52 53 54 54 54 55 56 56 57 57 56 56 55 54 53 52 51 51 52 53 53 53 54 55 55 56 57 57 58 58 59 59 60 61 62 63 64 65 67 69 70 70 71 72 73 74 77 79 79 78 77 77 78
62 62 61 61 62 62 62 62 61 60 60 60 61 62 62 61 60 59 60 61 61 61 61 60 59 59 59 59 57 54 52 52 52 53 53 54 54 54 55 56 56 56 55 54 53 53 52 51 50 50 51 52 53 53 53 54 55 56 57 57 57 57 58 59 60 62 64 65 66 67 68 69 70 72 73 74 75 76 77 77 77 78 78 77 76
61 60 60 60 60 61 61 61 61 61 61 62 63 64 64 63 63 63 62 59 57 56 56 57 57 57 57 57 55 54 53 53 53 53 53 53 53 53 53 54 54 53 52 52 52 51 51 51 50 50 51 52 53 53 54 55 56 56 57 58 58 58 59 60 61 63 65 65 66 67 68 70 72 74 74 74 74 74 75 75 76 76 74 73 74
59 59 60 60 61 61 62 63 63 63 64 64 65 65 65 64 63 61 58 55 53 54 55 56 55 55 54 54 53 52 52 53 53 53 53 53 52 52 51 51 51 50 50 50 49 49 49 49 50 50 51 52 53 54 55 55 56 57 58 58 59 59 60 61 63 64 65 66 67 68 69 70 71 71 71 71 71 71 72 72 72 71 70 71 73
60 61 61 61 62 62 63 63 64 64 64 64 64 63 62 61 60 58 56 55 53 53 53 52 51 50 50 50 50 50 51 52 53 53 53 53 52 51 51 50 49 49 49 49 49 49 49 50 51 51 52 53 54 55 56 57 58 59 59 59 60 61 61 62 63 64 65 67 68 68 69 69 69 69 70 69 68 68 68 68 68 69 70 72 72
60 60 60 60 60 60 60 61 61 61 61 60 60 59 59 59 58 58 57 55 52 50 49 48 47 47 47 47 48 49 51 52 54 54 54 53 53 51 50 49 49 49 49 49 50 50 51 51 52 53 54 55 56 57 59 60 61 61 61 62 62 62 62 62 63 65 67 68 68 68 68 68 69 70 68 66 65 66 65 65 67 69 71 71 72
56 56 56 56 56 57 57 57 57 57 57 57 58 58 58 59 59 58 56 53 50 48 47 45 45 45 46 47 48 49 51 52 54 54 54 53 52 50 49 49 49 49 50 51 51 52 53 54 55 56 57 58 59 60 61 62 63 63 63 63 63 62 62 63 64 66 68 68 68 68 69 69 70 69 67 65 64 63 64 66 68 70 71 71 72
54 54 53 54 54 55 56 56 56 57 58 58 59 59 59 59 58 56 54 51 49 48 47 46 45 46 47 48 49 51 52 53 53 53 52 52 51 50 49 49 50 50 51 52 53 54 55 56 58 59 60 61 62 62 63 64 65 65 65 65 63 63 64 65 66 67 68 68 69 70 72 73 72 69 66 63 61 62 64 67 69 70 71 71 70
55 54 54 55 55 56 56 57 57 58 59 60 60 60 60 58 55 53 52 51 50 49 48 48 48 48 49 50 51 52 53 54 54 53 52 52 52 51 51 51 52 52 53 54 55 56 57 58 60 61 62 63 64 64 65 65 66 67 67 66 65 65 66 66 66 68 70 70 71 73 74 73 69 66 63 62 61 63 66 68 70 70 69 69 69
57 56 56 57 57 57 57 57 57 58 59 60 60 60 59 57 54 53 52 52 52 51 50 50 50 51 52 52 53 55 56 56 56 56 55 55 54 54 55 55 55 55 56 57 58 59 60 61 61 62 63 64 65 66 66 66 67 67 68 68 68 68 68 68 68 70 71 71 72 73 73 69 66 64 62 61 63 66 68 69 69 68 67 68 70
59 58 58 59 59 58 58 57 57 58 59 59 60 59 58 56 54 54 53 53 54 54 53 53 54 54 55 55 55 56 58 59 59 58 58 58 58 58 58 58 58 59 60 61 62 62 63 63 63 64 65 65 66 66 67 67 67 68 68 68 68 69 70 71 71 70 71 72 72 71 68 65 63 61 61 63 66 67 67 67 66 66 68 69 70
59 60 60 60 60 59 58 57 57 58 59 59 60 59 58 57 56 55 55 55 55 56 56 57 58 58 58 59 58 58 59 60 61 61 61 61 61 61 62 62 62 63 64 64 65 65 65 65 65 65 65 66 67 68 68 68 68 69 69 69 70 71 71 71 71 72 72 71 68 65 62 60 60 62 64 66 67 65 64 64 66 67 68 69 70
59 60 61 61 62 61 60 59 59 60 61 61 61 62 62 61 61 60 60 60 60 61 63 64 65 65 65 64 63 62 61 61 62 63 64 64 64 65 65 66 66 67 67 67 67 67 66 66 65 65 67 68 69 69 69 69 69 69 70 70 71 72 71 70 71 70 67 63 60 59 59 60 62 64 65 64 63 62 63 65 67 67 68 69 71
62 62 63 63 64 64 64 64 64 64 65 65 66 67 67 67 68 68 68 68 69 70 71 72 72 72 71 70 68 67 65 65 65 65 66 67 68 69 69 70 70 71 70 69 69 68 68 67 67 68 69 70 71 71 70 69 69 68 69 70 71 72 72 70 67 62 58 56 58 60 62 62 63 63 62 61 61 63 64 65 66 67 69 70 72
70 70 70 70 70 71 71 71 71 71 71 71 71 72 73 74 75 76 76 76 76 77 77 76 75 75 74 73 72 71 69 68 68 68 69 70 70 71 72 72 73 73 72 72 72 72 70 69 69 69 69 70 70 70 68 67 67 68 70 71 72 71 66 60 56 54 56 59 61 62 61 60 60 60 60 61 63 63 64 65 66 68 70 71 72
77 77 78 78 78 79 79 79 79 79 78 77 77 77 77 78 79 81 81 82 82 81 80 79 78 76 75 75 74 73 72 72 72 72 72 72 72 72 73 74 74 74 74 73 72 70 68 68 68 69 69 68 67 67 66 67 67 67 68 68 66 62 57 54 55 58 61 61 60 58 58 58 59 60 61 62 62 63 64 65 67 69 70 72 72
81 81 82 82 83 83 83 84 84 84 84 84 83 83 82 83 83 84 85 86 85 85 84 82 80 79 78 76 75 75 74 74 74 74 73 74 74 74 74 74 74 73 71 69 68 68 69 70 71 70 70 69 69 69 69 69 68 67 66 64 61 58 56 58 60 60 58 57 56 56 57 58 60 61 61 62 62 64 65 67 68 69 71 71 72
83 84 84 84 85 85 86 86 86 86 86 86 86 86 85 85 85 85 86 86 86 85 84 82 81 80 78 77 76 75 75 75 75 75 75 76 75 74 74 73 72 71 71 71 71 72 73 72 71 71 71 71 70 69 67 67 68 68 66 62 59 58 58 58 57 55 54 55 56 57 58 59 59 60 61 62 63 65 66 67 68 69 70 71 71
84 85 85 86 86 86 86 86 86 85 85 84 84 83 82 82 81 81 80 80 79 79 78 77 76 75 75 75 75 74 75 75 76 76 76 76 75 74 74 74 73 73 73 72 72 72 71 70 69 69 69 67 65 64 64 64 64 61 58 55 55 55 55 54 54 54 55 55 56 57 57 58 59 60 61 63 64 65 66 67 67 68 69 70 71
82 82 82 82 82 82 81 81 81 80 79 78 78 77 76 75 75 74 73 73 72 72 71 71 71 71 70 71 71 71 71 72 72 73 73 73 73 73 73 72 71 71 70 70 69 69 68 68 67 65 63 61 61 61 60 58 55 52 51 51 52 52 52 53 53 54 54 55 55 56 57 58 60 61 62 63 64 64 65 66 67 68 69 70 71
79 78 78 77 77 77 77 77 77 76 76 76 75 75 74 73 73 72 72 72 71 70 70 70 70 69 68 67 67 67 68 69 69 69 69 69 70 70 69 69 68 68 68 67 67 66 65 63 60 58 58 58 58 56 53 50 48 48 49 49 50 51 51 52 53 53 53 54 55 56 58 59 60 61 62 63 63 63 64 65 66 67 69 70 71
79 79 80 79 79 79 79 78 78 78 77 77 76 76 75 75 74 74 73 72 71 71 70 69 68 68 68 67 67 68 69 69 69 69 68 68 67 67 66 65 65 65 65 64 63 60 58 56 55 55 55 54 51 49 47 46 47 47 48 49 50 50 51 51 52 53 54 55 56 58 59 60 61 61 62 62 62 63 63 64 66 67 68 70 71
81 81 82 82 82 82 81 80 80 79 78 77 76 76 76 75 74 73 72 72 72 71 71 70 69 69 70 70 70 71 72 72 71 69 67 65 63 62 61 61 60 59 58 56 54 53 52 52 53 52 50 48 46 46 46 46 47 48 49 49 50 50 51 51 52 53 55 56 57 58 59 60 61 61 61 61 62 62 63 64 66 67 69 70 72
82 82 82 83 83 83 82 82 81 79 78 76 76 75 75 74 72 71 71 71 71 71 71 71 71 71 72 73 74 74 73 72 70 68 65 63 61 60 59 58 56 54 52 50 50 50 50 50 49 47 45 45 45 46 47 47 48 49 49 50 50 51 52 53 54 55 56 57 58 59 60 60 60 60 60 61 61 62 63 65 66 68 70 71 73
85 85 84 84 84 84 84 83 82 81 79 77 76 75 74 73 73 72 71 71 70 70 71 71 72 72 72 71 70 68 67 67 65 64 62 60 59 57 55 53 51 49 49 48 48 47 46 45 44 44 45 46 46 47 48 49 50 50 51 52 52 53 54 54 55 56 57 58 59 60 60 60 60 60 60 60 61 63 64 66 67 69 71 72 73
88 88 87 87 87 86 86 85 84 83 81 79 77 76 75 75 74 74 73 72 71 70 70 70 71 70 68 65 62 60 59 59 57 55 54 53 52 51 50 49 48 48 47 46 45 44 44 44 44 46 47 48 49 50 51 51 51 52 52 53 54 54 55 56 56 57 58 59 59 59 59 59 59 59 60 61 62 63 65 67 69 70 71 72 73
90 90 89 89 88 88 88 87 86 85 83 81 79 77 76 75 74 74 73 72 71 69 68 69 68 65 61 58 54 50 50 50 48 47 47 47 47 48 48 47 47 46 45 44 44 44 45 46 47 48 49 50 51 52 52 53 53 54 54 55 55 56 56 57 57 58 58 58 58 58 58 58 59 60 60 62 63 65 66 68 69 71 72 73 74
88 88 89 89 88 88 88 88 87 86 84 83 82 80 79 79 78 76 73 71 69 68 66 65 62 58 54 52 49 47 47 48 47 46 47 47 47 47 47 46 46 45 46 46 47 47 48 49 50 50 51 52 52 53 54 54 54 55 55 55 56 56 56 57 57 57 57 57 57 57 58 58 59 60 61 63 65 66 68 69 71 72 73 74 75
84 83 84 84 84 84 84 85 84 84 83 83 82 82 82 82 81 78 72 68 67 65 63 60 57 53 51 50 49 49 49 49 49 49 48 48 47 47 47 47 47 48 49 49 49 50 50 50 51 51 52 53 53 54 54 54 54 54 54 54 55 55 56 56 56 56 56 57 57 57 58 59 60 61 63 65 66 68 69 71 72 73 74 75 75
81 80 80 79 78 78 77 77 76 77 77 76 76 76 76 76 75 73 70 68 65 63 60 57 55 54 54 53 52 50 49 49 50 50 49 48 48 49 50 51 51 51 51 51 50 50 50 50 50 51 51 52 52 53 53 53 53 53 54 54 55 55 55 55 55 56 56 56 56 57 58 60 61 63 65 66 68 70 71 72 73 73 74 75 75
78 77 76 75 74 72 70 68 67 65 64 63 61 60 60 60 60 60 61 61 60 59 59 59 59 59 61 59 56 52 51 52 52 51 50 49 49 50 51 51 51 50 49 49 48 48 48 48 49 50 51 52 53 53 53 54 54 54 54 54 54 54 54 54 54 54 55 55 57 58 59 61 63 65 67 68 70 71 72 72 73 74 74 75 75
74 73 72 70 68 65 62 60 56 53 51 51 51 50 50 51 52 53 54 55 56 56 58 60 61 63 62 59 54 52 53 54 52 50 48 47 47 47 48 49 48 48 47 47 47 47 48 49 51 52 53 54 55 56 56 56 56 55 54 53 53 53 53 53 53 54 54 56 57 59 61 63 65 67 68 70 71 72 72 73 73 73 74 74 74
71 70 67 64 61 58 54 51 48 46 46 47 49 50 50 50 52 53 54 55 55 55 57 60 62 62 60 55 52 51 50 48 45 43 43 44 45 46 47 48 48 48 48 48 49 50 51 52 54 55 56 58 58 58 58 56 55 54 52 51 51 51 52 52 53 54 55 57 59 61 63 65 67 68 69 70 71 72 72 72 73 73 73 74 75
68 67 64 60 56 52 48 45 44 45 47 48 50 51 52 52 53 54 54 55 56 57 59 60 59 56 53 50 48 46 44 41 40 41 42 44 46 47 48 49 49 50 50 50 51 52 54 55 57 58 59 60 59 58 56 54 53 51 50 50 50 51 51 53 54 56 58 60 62 64 66 67 68 69 70 71 71 72 72 72 72 72 73 74 76
64 63 62 59 55 51 46 43 42 44 47 48 49 50 51 52 53 53 54 56 57 57 56 53 49 46 45 43 41 41 41 41 41 41 42 45 47 49 49 50 50 50 51 51 53 55 56 58 60 60 59 58 57 55 53 52 50 49 49 49 50 52 53 55 57 59 61 62 64 66 67 68 69 70 70 71 71 71 71 72 72 73 74 76 77
60 59 59 58 56 50 46 43 42 43 44 45 46 48 51 52 52 54 56 58 57 53 49 45 41 39 38 38 38 39 40 40 40 42 44 46 48 48 48 49 50 51 52 54 55 57 59 59 59 58 57 55 54 52 51 49 49 49 50 51 53 54 56 58 60 61 63 65 66 67 69 69 70 70 70 71 71 72 72 73 74 75 76 77 79
56 55 55 55 54 51 46 43 42 43 44 44 45 47 48 49 49 49 50 49 45 41 40 39 38 37 37 38 38 39 40 41 42 44 46 47 47 48 49 51 52 53 54 55 56 57 57 57 56 55 54 53 51 50 49 49 49 51 52 54 55 57 59 60 62 64 65 67 68 69 70 70 70 70 71 71 72 72 73 74 75 76 77 78 79
54 53 52 52 52 50 46 42 42 42 43 44 44 43 42 42 43 43 43 43 42 41 40 39 38 37 37 38 39 39 40 42 43 44 45 47 48 49 50 51 52 52 53 54 55 55 54 54 54 53 52 50 49 49 49 51 52 53 55 56 57 59 61 63 65 66 67 69 70 70 70 71 71 71 72 73 73 74 75 76 77 77 78 79 80
51 50 50 49 49 48 45 42 42 42 42 43 43 41 39 39 41 43 45 46 46 44 41 39 38 37 37 37 38 39 41 42 44 45 46 47 48 48 49 50 51 51 52 53 53 53 53 52 51 50 49 48 49 50 52 53 54 55 57 58 60 62 64 66 67 68 69 70 71 71 71 71 72 72 73 74 75 76 77 77 78 78 79 80 82
47 47 47 46 46 46 46 45 42 40 39 40 42 41 40 41 41 41 41 40 39 38 37 37 37 37 37 38 39 40 41 43 44 45 45 46 47 48 49 50 50 51 51 51 51 50 50 49 48 48 48 49 51 52 53 54 56 57 59 61 63 65 66 68 69 70 71 71 72 72 72 72 73 74 75 76 77 78 78 78 78 79 81 82 84
43 42 42 42 42 44 46 46 42 37 34 35 37 37 37 37 37 36 36 36 36 36 36 37 38 39 39 40 40 41 42 43 44 44 45 46 47 48 49 50 50 50 49 48 47 47 46 47 47 49 50 51 53 54 55 57 58 60 62 64 65 67 69 70 71 71 72 72 72 73 74 75 76 77 78 78 78 78 79 79 80 81 83 84 85
38 37 37 38 40 43 46 48 44 38 36 36 37 36 35 34 34 34 34 36 36 36 37 38 39 40 41 41 41 42 43 43 44 45 46 47 47 48 49 50 49 47 46 45 45 46 47 48 50 51 52 54 55 56 58 59 61 63 64 66 68 69 70 71 72 73 73 74 74 75 77 77 78 79 79 79 79 79 80 81 83 84 85 86 87
37 36 36 37 38 40 44 47 45 40 38 39 39 38 39 39 39 38 39 40 40 40 39 39 40 41 41 42 42 43 44 44 45 46 47 47 48 49 49 47 46 45 45 45 46 48 49 50 52 53 54 56 57 59 60 62 63 65 67 68 69 71 72 73 74 74 75 76 77 77 78 79 79 79 80 80 81 82 83 84 85 86 87 88 88
40 39 36 35 35 36 39 42 42 40 39 39 39 39 40 39 38 38 40 41 41 40 39 39 40 41 42 43 43 44 45 46 46 47 48 48 48 47 46 45 44 45 46 47 49 50 51 52 54 55 57 58 59 61 63 64 66 67 68 70 71 73 74 75 75 76 77 78 78 79 79 80 80 81 81 82 83 84 85 86 87 87 87 87 85
39 39 36 34 35 36 37 37 38 39 41 43 45 44 42 40 38 39 39 39 39 39 39 40 41 42 42 43 44 45 46 47 47 48 48 48 47 45 45 45 46 48 49 50 51 52 53 54 56 57 58 60 62 63 65 66 68 69 71 72 73 74 75 76 76 77 78 79 79 80 80 81 81 82 83 85 86 86 87 87 87 86 84 82 79
38 37 34 33 36 38 38 38 37 38 39 42 44 44 43 41 40 39 39 39 40 40 41 41 42 42 43 44 46 47 48 49 49 49 49 47 46 46 47 48 49 50 51 51 52 53 55 56 57 59 61 62 64 66 67 69 70 71 72 73 74 75 76 77 77 78 79 80 80 81 82 83 84 85 86 86 87 86 85 84 82 80 78 76 74
41 39 37 35 36 37 38 38 37 37 38 39 40 41 42 42 41 40 40 41 42 42 43 43 43 44 45 47 48 49 50 51 50 50 48 47 47 48 49 50 51 51 52 53 54 55 56 58 59 61 63 65 66 68 69 71 72 73 74 75 76 76 77 78 79 80 81 81 82 83 84 85 85 85 85 84 83 82 80 78 77 75 73 72 70
44 44 43 42 40 39 39 39 40 41 42 42 42 42 43 43 43 42 42 42 43 43 44 45 46 47 48 49 49 50 51 50 49 49 48 48 49 50 50 51 51 52 53 54 55 56 58 60 61 63 65 67 68 70 71 73 74 75 76 77 78 78 79 80 81 82 83 84 84 84 84 83 82 82 81 80 78 77 76 74 73 71 69 67 65
Wind_Direction
279 280 280 281 282 283 284 284 285 285 286 286 287 288 289 289 291 291 292 291 291 291 291 291 292 293 294 295 295 295 294 291 290 290 289 288 287 286 285 285 285 285 285 285 286 286 286 286 287 287 287 288 288 288 289 289 289 289 289 289 289 289 290 291 292 292 292 292 292 292 290 289 290 291 293 294 295 295 295 295 294 293 293 293 294
277 278 279 280 281 282 282 282 283 284 286 286 287 288 289 291 291 291 291 290 289 289 289 290 291 292 293 294 295 295 293 290 289 289 289 288 287 286 285 284 285 285 286 286 286 286 286 286 287 287 287 288 288 289 289 289 289 289 289 289 289 290 290 291 292 292 293 292 292 291 289 288 290 292 293 294 294 294 294 293 292 292 292 293 294
276 277 278 279 280 281 282 283 284 286 287 288 289 290 290 291 291 290 289 288 288 288 289 289 291 292 292 293 294 295 293 290 288 288 288 287 287 286 285 285 285 285 286 287 287 287 287 288 288 287 287 288 288 289 289 289 289 289 289 289 289 289 289 290 290 291 291 290 290 290 289 289 290 291 292 293 293 293 291 290 291 292 293 292 293
276 278 279 280 281 283 284 285 286 287 288 289 290 289 289 288 288 288 288 288 288 288 289 290 291 292 292 293 294 295 292 289 288 287 287 287 287 286 286 285 285 286 286 287 287 287 288 289 288 288 288 288 289 289 289 289 289 289 289 289 289 289 290 291 291 291 291 291 291 290 289 289 290 291 292 292 291 290 289 289 291 293 292 292 293
278 279 280 281 283 284 284 285 286 287 287 288 287 287 287 288 288 288 288 289 289 289 290 291 292 292 293 293 294 294 291 289 288 287 286 286 287 287 287 286 286 286 286 287 287 288 288 289 289 289 289 290 290 290 289 289 289 289 289 289 289 289 290 290 290 290 290 290 290 289 289 289 290 290 290 290 289 289 290 291 292 292 292 293 295
279 280 281 282 283 283 284 285 286 286 286 286 286 286 287 288 289 289 290 290 291 290 291 292 292 293 293 293 293 292 289 288 288 287 287 287 287 288 289 288 288 288 288 288 288 288 288 289 290 290 290 290 290 290 290 290 290 290 289 289 289 289 289 288 288 288 289 289 289 289 289 289 289 289 289 289 290 290 290 291 291 292 293 295 295
281 281 282 283 283 284 284 285 285 285 285 285 286 287 288 289 290 290 291 292 292 292 292 292 293 293 293 293 291 289 287 287 287 287 287 288 288 290 290 290 290 289 289 289 289 289 289 290 290 290 289 289 290 290 290 290 290 289 289 290 290 289 289 290 290 290 289 289 289 289 289 288 289 290 291 290 289 289 289 290 292 293 294 294 295
281 282 282 283 283 283 283 283 283 284 284 285 286 287 288 289 290 291 292 293 294 293 292 293 293 293 293 291 288 287 286 286 286 286 287 287 288 289 290 290 290 290 289 290 290 290 290 290 290 290 290 290 290 291 291 291 291 291 291 291 291 291 292 293 292 291 290 290 290 289 289 289 290 291 289 288 288 289 289 290 292 293 293 293 293
281 281 281 282 281 281 281 282 282 283 284 285 287 288 289 290 291 292 293 294 293 292 292 292 292 292 291 289 287 286 286 285 285 285 285 286 287 287 288 288 288 289 289 289 290 290 290 290 290 290 291 291 291 291 291 291 291 291 291 292 292 293 294 293 291 290 289 289 289 289 289 290 290 289 286 286 288 289 289 290 291 291 290 291 292
281 281 281 281 281 281 281 282 283 284 285 286 287 288 289 290 291 292 293 292 291 291 291 291 291 290 289 288 287 286 285 284 283 283 283 284 284 285 285 286 287 287 287 288 288 289 289 289 290 290 290 290 290 290 290 290 290 290 290 291 292 292 291 290 289 288 288 288 288 289 289 289 288 286 286 287 288 289 290 290 289 288 289 290 292
283 283 283 282 282 282 282 283 284 285 287 287 288 289 290 290 291 292 291 290 289 290 290 290 290 289 288 287 287 285 284 283 282 282 282 281 281 281 282 283 284 285 285 286 287 288 288 289 289 289 289 289 289 289 289 289 289 289 290 291 291 290 289 289 289 288 288 288 288 289 289 288 286 286 287 289 290 290 289 287 287 288 290 292 294
284 284 284 284 283 283 283 283 284 286 287 287 288 289 289 290 290 290 290 290 289 289 288 288 288 288 287 287 286 284 283 282 281 280 279 278 278 279 280 281 281 282 284 285 286 287 288 288 288 288 288 288 289 289 289 289 289 289 290 290 290 289 288 288 287 287 287 287 287 288 287 286 286 287 288 289 288 287 286 286 288 290 292 294 295
284 284 284 284 284 283 283 284 285 285 286 286 287 287 288 288 287 288 289 289 289 288 287 287 287 286 286 286 285 284 282 281 280 279 278 276 276 277 277 278 279 281 282 283 284 285 286 287 287 288 288 288 288 288 288 288 288 288 288 288 288 288 287 286 285 285 286 286 285 284 284 284 286 287 287 286 285 285 286 288 290 291 293 295 296
284 284 284 284 284 284 284 284 285 285 285 285 285 285 285 285 284 285 286 287 287 287 287 287 286 285 285 285 285 284 282 281 280 279 277 276 275 276 276 277 278 279 281 281 283 284 285 286 287 287 287 287 288 288 287 287 287 286 286 286 286 287 286 286 285 284 284 283 282 282 284 285 285 284 283 283 285 287 289 289 291 293 294 296 297
283 283 284 283 283 283 283 284 284 284 284 284 283 283 283 283 283 283 284 285 286 287 288 288 288 287 286 286 286 285 284 282 280 279 277 276 276 276 276 277 278 279 280 281 283 284 285 287 287 287 287 288 288 288 288 287 286 285 285 286 286 286 286 286 285 284 283 282 283 284 285 283 281 280 282 285 287 288 289 291 293 294 295 296 297
282 283 283 283 283 283 283 284 284 284 283 283 283 283 283 283 283 283 284 284 286 287 288 289 289 289 288 287 287 286 285 283 281 280 278 277 277 277 277 278 279 281 282 283 285 286 287 287 287 287 288 289 289 288 287 286 285 285 286 287 288 288 287 285 284 284 284 284 283 282 280 278 279 282 284 286 287 289 291 293 294 295 296 297 297
281 281 282 282 282 282 282 283 283 284 284 284 283 283 283 283 283 284 285 286 286 287 288 288 289 289 288 287 286 285 284 283 283 281 280 279 279 279 279 280 282 283 284 286 287 288 288 288 288 289 290 289 287 285 284 285 287 288 289 289 289 288 286 284 284 284 283 281 278 277 276 277 281 283 285 287 289 291 292 293 294 295 296 296 297
281 281 281 281 281 281 281 281 282 282 283 283 282 282 282 282 283 284 285 285 286 287 287 288 288 287 286 285 284 284 283 283 283 282 282 281 281 281 282 282 283 285 286 288 289 290 290 289 289 289 288 286 284 284 286 287 288 289 290 290 290 288 285 283 282 280 278 276 275 275 277 279 282 285 287 288 290 292 293 294 295 295 296 296 298
281 282 282 282 281 281 281 281 281 282 282 281 281 280 280 281 281 282 283 284 285 286 287 287 287 286 285 284 283 283 283 283 283 283 283 283 283 283 283 284 285 287 289 290 290 289 288 287 287 286 285 285 285 285 285 285 286 289 290 289 286 284 280 278 277 276 275 274 275 277 279 282 285 287 288 290 291 293 293 294 294 295 297 298 300
281 281 281 281 281 281 282 282 282 282 282 281 281 280 280 279 280 281 281 283 284 285 286 286 286 286 285 285 284 284 284 284 284 284 285 284 285 285 286 287 288 289 289 288 287 286 286 286 287 286 285 284 283 283 284 285 288 288 285 281 280 279 276 275 274 274 275 276 278 280 282 285 287 288 290 291 292 293 293 294 296 297 299 300 300
281 281 281 282 282 282 281 281 281 281 281 281 281 281 281 281 280 281 281 282 283 284 285 286 286 286 286 285 285 285 285 285 285 286 286 286 287 288 288 288 287 287 286 286 286 286 287 287 286 285 283 282 283 285 286 286 285 283 280 277 277 275 273 273 274 276 278 280 282 284 286 287 289 290 291 292 292 293 295 296 298 298 299 300 301
280 280 280 280 281 281 281 281 282 282 282 282 282 282 282 282 283 283 283 284 284 285 286 287 287 287 287 287 287 286 286 286 286 286 286 287 287 287 287 287 287 287 286 286 286 286 286 285 284 283 283 284 286 286 284 281 279 279 277 275 273 271 272 274 277 280 282 284 285 287 288 289 290 291 292 292 294 295 296 297 298 299 299 300 301
278 278 278 279 279 279 280 281 282 282 283 283 283 284 284 284 285 285 286 286 287 287 288 288 288 289 289 288 288 288 288 287 287 287 287 287 287 287 287 287 287 287 287 286 286 285 284 283 283 284 285 286 285 283 280 277 276 274 273 272 272 273 276 278 280 283 285 287 288 289 289 290 291 292 293 294 295 297 297 298 299 299 300 301 302
277 277 278 278 278 279 280 280 281 282 283 283 284 284 285 285 286 286 287 287 288 288 289 289 289 290 290 290 290 289 289 288 288 288 287 287 287 287 287 287 287 286 285 285 284 283 283 283 284 285 284 282 280 278 276 275 274 273 274 275 276 278 280 282 284 286 287 288 289 289 290 291 292 293 295 296 297 297 298 299 299 300 301 302 303
277 278 278 278 279 279 280 280 281 282 282 283 283 284 284 285 286 286 287 288 289 289 289 290 290 290 290 290 289 289 288 288 288 288 288 287 287 286 286 285 284 283 283 282 283 284 285 285 284 282 280 278 276 275 275 274 275 276 277 279 280 282 284 285 286 287 288 288 289 291 292 293 294 295 296 297 297 298 298 299 301 301 302 303 303
279 279 279 280 280 280 280 280 280 281 281 281 281 282 282 283 284 285 286 287 288 289 289 289 290 289 289 289 288 288 288 288 288 288 287 286 285 284 283 283 283 284 284 285 287 287 286 283 280 278 276 276 275 275 275 276 278 279 281 282 283 284 285 286 287 288 289 290 292 293 294 295 296 297 297 297 298 299 300 301 301 302 302 303 304
280 280 280 280 280 280 280 280 280 280 280 279 279 279 279 279 280 281 283 284 285 286 287 288 288 288 288 288 288 287 287 286 285 285 284 283 283 284 285 286 288 288 288 287 285 283 280 278 277 276 276 276 276 277 278 280 281 282 283 284 285 286 287 288 290 291 292 293 294 295 296 296 297 297 297 298 299 300 301 301 302 302 303 304 305
280 280 279 279 279 279 280 280 280 280 279 279 278 277 277 276 277 278 280 282 283 284 285 285 286 286 286 286 286 286 285 285 284 284 284 284 285 287 288 289 288 285 283 280 278 277 276 276 276 277 277 279 280 281 282 283 284 285 285 286 287 288 289 291 292 293 294 295 296 296 296 296 297 297 298 299 300 301 301 302 302 303 304 305 305
278 278 278 278 278 278 278 278 279 279 279 278 278 277 276 276 276 278 280 282 283 283 285 286 286 286 285 284 283 283 284 284 283 283 283 284 285 286 285 283 280 277 275 275 275 276 277 278 279 280 281 282 283 284 285 285 286 287 287 288 289 290 291 292 293 294 295 295 296 296 296 296 297 298 299 300 300 301 301 302 303 303 304 305 305
277 277 277 277 277 277 277 277 277 277 277 276 276 275 275 275 277 279 282 283 283 285 286 287 286 284 282 280 278 278 279 279 278 278 278 279 279 279 277 275 274 274 275 276 278 279 280 281 282 282 283 284 285 285 286 286 287 288 289 289 290 291 292 292 293 294 295 295 295 296 296 297 298 299 300 300 300 301 301 302 303 303 304 304 304
278 278 277 277 277 277 277 277 277 276 276 275 274 274 274 275 276 279 281 282 283 284 285 284 281 279 276 274 274 275 276 275 274 273 274 275 276 276 277 277 277 278 279 280 281 281 282 283 284 284 285 285 285 285 286 287 288 288 289 290 290 291 292 293 294 295 295 295 296 297 298 298 299 299 300 300 300 301 302 302 302 303 303 303 304
279 278 278 278 278 277 277 277 277 277 276 276 275 274 274 275 276 277 278 279 280 282 282 279 277 275 273 273 275 276 276 274 273 273 273 275 277 279 280 281 281 281 282 281 281 282 282 283 284 284 285 285 285 286 287 287 288 289 290 291 292 293 294 295 295 295 296 296 297 298 298 299 299 299 300 300 301 301 301 301 301 302 302 303 303
279 279 279 279 279 279 278 278 278 277 278 278 278 278 278 278 277 277 276 276 277 277 277 276 276 277 279 279 278 278 277 276 276 275 275 276 277 278 280 281 281 282 282 282 281 282 282 283 284 285 286 287 288 288 289 290 291 292 293 293 294 295 295 296 296 296 297 298 298 299 299 299 299 300 300 300 300 300 300 300 300 300 301 302 303
279 279 279 279 280 280 280 280 280 281 282 283 283 282 281 280 279 276 275 274 274 273 273 275 278 281 282 281 279 277 278 277 276 275 275 275 276 277 279 281 282 283 283 283 284 285 286 287 288 289 290 291 292 293 293 294 294 295 295 295 296 296 296 296 297 298 298 299 299 299 299 299 299 299 299 299 298 298 298 298 299 300 301 302 303
279 279 279 279 279 280 280 281 281 281 281 282 282 281 280 279 277 275 274 274 273 272 272 275 278 280 281 279 276 275 275 276 276 277 277 277 278 280 282 284 285 286 287 288 289 290 292 292 293 294 295 295 296 296 296 296 296 296 296 296 297 297 297 298 298 299 299 299 299 299 299 299 299 298 297 297 296 296 297 297 298 300 301 302 303
278 278 278 279 279 279 280 280 280 276 273 273 275 275 275 276 276 275 275 273 273 273 274 275 277 277 276 275 274 274 275 277 278 278 278 280 283 285 286 287 288 289 290 291 292 293 294 295 296 296 296 297 297 297 297 297 297 297 297 297 297 297 297 298 298 298 299 299 299 299 298 298 297 296 295 295 295 295 296 297 299 300 301 302 303
278 277 277 276 276 276 276 275 275 273 270 269 270 271 272 273 275 275 274 273 272 272 272 273 272 271 272 273 273 274 275 276 275 276 278 282 285 287 287 287 288 288 290 291 292 294 295 296 297 297 297 297 297 296 296 296 296 296 296 296 296 296 297 297 297 298 298 298 298 297 296 296 295 294 294 294 295 295 297 298 299 300 301 302 303
277 277 275 273 272 272 270 270 271 272 271 270 271 272 273 274 275 275 276 275 273 271 269 268 268 269 271 271 271 272 273 274 275 278 281 283 284 284 284 285 286 288 290 292 294 296 297 297 297 297 296 296 296 295 295 294 294 294 294 294 295 295 296 296 297 297 297 297 296 296 295 294 294 294 294 294 295 296 297 298 299 300 301 302 303
277 276 274 272 270 267 264 265 269 270 270 272 275 276 276 274 274 275 275 273 270 266 265 266 268 269 268 267 267 270 273 276 279 281 282 282 282 282 284 286 288 291 293 296 297 297 297 296 296 295 295 295 294 293 293 292 292 293 294 294 295 295 296 296 296 296 296 296 295 295 294 294 294 294 294 295 296 297 297 298 299 300 301 303 303
277 276 274 272 270 264 260 263 268 268 269 273 277 278 276 273 271 272 271 268 266 266 267 268 267 266 265 266 268 271 274 277 279 280 280 280 282 284 287 290 292 294 296 296 296 295 295 294 294 294 293 292 291 291 291 291 292 293 293 294 294 294 294 295 295 295 295 295 295 294 294 294 294 294 295 295 296 297 298 299 300 301 302 303 303
277 276 274 273 270 263 258 262 269 270 270 272 273 273 273 272 271 270 270 269 271 273 272 268 265 263 264 267 269 272 274 276 277 279 280 283 286 288 290 292 294 295 295 295 294 293 293 293 292 291 290 289 289 290 290 291 292 292 293 293 294 294 294 294 294 295 295 295 295 294 294 294 294 294 295 296 297 298 299 299 300 301 301 302 302
275 275 274 274 271 262 256 260 270 274 273 270 267 265 268 270 270 270 270 270 270 269 266 262 262 264 267 270 273 275 276 278 280 283 285 287 289 291 292 293 294 295 295 294 293 292 292 290 289 288 288 288 289 290 291 291 292 292 293 293 293 294 294 294 294 294 294 294 294 293 293 294 294 295 296 296 297 298 299 299 300 300 300 301 302
274 274 274 273 269 260 253 258 269 276 275 270 267 266 267 268 268 268 267 266 264 263 263 264 268 272 275 278 280 281 282 283 285 287 289 290 291 293 294 295 296 295 294 293 292 290 289 287 287 287 287 288 289 290 291 292 292 292 293 293 293 293 293 293 293 294 294 294 293 293 294 294 295 296 296 297 298 298 298 298 299 299 300 301 302
272 274 275 273 267 258 254 258 265 271 273 272 270 268 267 267 267 267 268 268 269 270 272 274 277 278 280 282 284 285 286 287 288 290 291 293 294 295 296 296 296 295 293 291 289 287 286 286 287 288 289 289 290 291 291 292 292 292 292 293 293 293 293 293 294 294 294 294 294 294 294 295 296 296 297 297 297 297 297 298 298 299 300 301 302
269 270 271 269 265 260 257 257 260 266 272 274 271 267 265 266 267 267 267 269 271 272 273 275 278 280 282 283 285 286 288 289 290 291 292 293 294 294 295 296 295 292 290 287 286 285 286 287 288 289 289 290 290 291 291 292 292 292 293 293 293 294 294 294 294 294 294 294 294 294 295 296 296 296 296 296 296 297 297 297 298 299 300 301 302
260 262 265 267 267 266 263 260 261 266 270 269 265 265 269 273 274 272 271 271 271 273 274 275 278 280 282 284 285 287 288 289 289 290 291 292 292 293 293 292 290 287 285 285 285 286 287 287 288 288 289 290 290 291 292 292 293 293 294 294 294 294 294 294 294 294 294 294 294 295 295 295 296 296 296 296 296 296 297 298 299 300 300 301 301
254 258 263 267 270 272 270 268 268 270 269 265 264 267 269 269 268 269 271 272 273 274 274 275 276 278 280 282 284 286 287 287 288 288 289 289 289 289 288 286 284 284 284 284 285 286 286 287 287 288 289 290 291 292 293 294 294 294 294 294 294 294 294 294 294 294 294 294 294 295 295 295 295 296 296 296 296 297 297 298 298 299 299 300 300
255 257 260 262 264 267 268 269 269 268 267 267 267 266 262 261 263 268 271 273 273 272 272 273 276 277 279 281 283 284 284 284 285 286 286 287 286 286 284 283 283 283 283 284 284 285 286 287 289 290 291 292 293 294 294 295 295 294 294 294 293 293 293 293 294 294 294 294 295 295 295 295 296 296 296 296 296 296 297 297 298 298 298 299 299
255 255 255 257 260 262 264 265 266 265 264 265 265 262 261 262 266 270 272 272 272 272 273 275 277 279 280 282 283 283 283 283 284 285 285 285 283 282 282 282 282 283 283 284 285 286 288 289 291 292 293 294 295 295 295 295 295 295 294 294 294 294 294 294 295 295 295 295 296 296 296 296 296 296 296 296 296 296 296 297 297 297 298 298 298
252 252 253 256 261 262 261 262 264 266 267 268 267 264 262 263 264 267 270 271 271 272 274 277 279 280 281 282 282 282 282 282 283 283 283 281 280 280 281 282 283 284 285 286 287 288 290 291 292 294 295 295 296 296 296 296 296 296 296 295 295 295 295 296 296 296 296 296 296 297 296 296 296 296 295 295 296 296 296 296 297 297 297 297 297
254 255 255 258 261 263 263 264 267 270 272 273 272 270 267 264 263 265 268 270 270 273 276 278 279 280 280 280 280 280 279 280 280 280 279 279 280 281 283 284 285 286 286 287 289 290 292 293 294 295 296 297 297 297 297 297 297 297 296 296 296 296 296 296 297 297 297 297 297 297 296 296 296 296 296 296 296 296 296 296 297 297 297 297 297
Height
5788 5787 5785 5784 5783 5783 5782 5781 5779 5778 5777 5776 5775 5774 5773 5772 5771 5770 5767 5764 5761 5758 5754 5751 5748 5745 5743 5741 5740 5738 5736 5733 5731 5728 5727 5725 5724 5722 5720 5718 5717 5716 5714 5712 5710 5709 5707 5706 5704 5702 5700 5698 5696 5694 5693 5691 5689 5687 5685 5683 5680 5678 5675 5672 5669 5668 5665 5663 5661 5658 5656 5653 5650 5647 5645 5643 5640 5637 5633 5629 5625 5621 5617 5613 5610
5781 5780 5779 5778 5777 5776 5775 5774 5773 5772 5770 5770 5769 5768 5766 5765 5764 5763 5761 5758 5754 5751 5747 5744 5741 5738 5736 5733 5732 5730 5729 5726 5724 5722 5720 5719 5717 5715 5713 5712 5710 5709 5707 5705 5704 5702 5700 5699 5698 5695 5693 5691 5690 5688 5686 5684 5682 5680 5678 5676 5673 5671 5668 5665 5663 5660 5658 5656 5654 5652 5649 5646 5643 5641 5638 5636 5633 5629 5626 5621 5617 5613 5609 5605 5602
5775 5774 5773 5772 5771 5770 5768 5767 5767 5766 5764 5762 5762 5761 5759 5758 5756 5755 5753 5751 5748 5744 5740 5737 5734 5731 5729 5726 5724 5723 5721 5719 5717 5715 5714 5712 5710 5709 5707 5705 5703 5702 5700 5698 5697 5695 5693 5692 5691 5689 5687 5685 5684 5682 5680 5678 5675 5673 5671 5669 5666 5664 5661 5659 5657 5654 5652 5650 5648 5646 5643 5640 5637 5635 5632 5629 5625 5622 5618 5613 5609 5604 5600 5597 5594
5769 5768 5767 5766 5765 5763 5762 5761 5760 5759 5758 5756 5754 5752 5751 5750 5748 5747 5745 5743 5740 5736 5733 5730 5728 5725 5722 5719 5718 5716 5714 5713 5711 5709 5707 5706 5704 5702 5700 5699 5697 5695 5693 5692 5690 5688 5687 5686 5684 5682 5680 5678 5677 5676 5673 5671 5669 5666 5664 5661 5659 5656 5654 5652 5649 5647 5644 5642 5640 5638 5636 5632 5630 5627 5624 5621 5617 5614 5610 5605 5600 5596 5592 5589 5586
5763 5762 5761 5760 5759 5757 5755 5754 5753 5752 5751 5749 5746 5744 5742 5742 5740 5739 5737 5735 5732 5729 5726 5724 5721 5718 5716 5713 5711 5710 5708 5706 5704 5702 5701 5699 5698 5696 5694 5692 5691 5689 5687 5685 5684 5682 5680 5679 5678 5676 5674 5672 5670 5669 5667 5664 5662 5659 5657 5655 5652 5650 5647 5645 5642 5639 5637 5635 5633 5630 5628 5625 5622 5619 5617 5613 5610 5606 5602 5597 5592 5588 5584 5581 5578
5756 5756 5755 5754 5752 5750 5748 5747 5746 5745 5743 5741 5738 5736 5735 5734 5732 5730 5728 5726 5724 5721 5719 5717 5714 5712 5710 5707 5705 5703 5701 5699 5697 5696 5694 5693 5691 5689 5688 5686 5685 5683 5681 5679 5677 5676 5674 5672 5671 5669 5667 5665 5663 5661 5659 5657 5655 5652 5650 5648 5646 5644 5641 5638 5635 5633 5630 5627 5625 5622 5620 5617 5614 5611 5609 5606 5602 5598 5594 5589 5585 5581 5577 5574 5570
5750 5749 5747 5747 5745 5743 5741 5739 5737 5736 5734 5732 5730 5728 5727 5725 5723 5721 5720 5718 5716 5714 5711 5709 5707 5705 5703 5701 5699 5697 5695 5693 5691 5689 5688 5686 5684 5683 5681 5680 5678 5676 5674 5673 5671 5669 5668 5666 5664 5662 5660 5658 5656 5654 5652 5650 5648 5645 5643 5641 5639 5636 5634 5631 5627 5624 5622 5619 5617 5614 5611 5609 5606 5603 5601 5598 5594 5590 5586 5582 5577 5573 5570 5566 5562
5742 5741 5739 5739 5737 5735 5733 5731 5729 5727 5726 5724 5722 5720 5718 5716 5715 5713 5711 5710 5709 5706 5704 5702 5700 5698 5697 5695 5693 5691 5689 5687 5685 5683 5681 5679 5678 5676 5675 5673 5672 5670 5668 5666 5664 5663 5661 5659 5657 5655 5653 5651 5649 5647 5645 5643 5640 5638 5636 5634 5631 5629 5626 5623 5620 5616 5614 5611 5609 5606 5603 5601 5598 5595 5593 5590 5587 5583 5579 5575 5571 5566 5562 5558 5553
5734 5732 5731 5730 5728 5726 5724 5722 5720 5719 5717 5716 5714 5712 5710 5708 5707 5705 5704 5703 5701 5699 5697 5695 5693 5691 5690 5688 5687 5685 5683 5681 5678 5676 5675 5673 5671 5670 5668 5667 5665 5663 5661 5659 5658 5656 5654 5652 5651 5648 5646 5644 5643 5641 5638 5636 5633 5631 5628 5626 5623 5621 5618 5615 5612 5609 5606 5603 5601 5598 5596 5593 5591 5588 5585 5582 5579 5575 5571 5568 5564 5559 5554 5550 5546
5726 5724 5724 5722 5720 5718 5716 5714 5713 5711 5710 5708 5706 5705 5703 5701 5700 5698 5697 5695 5693 5692 5690 5688 5687 5685 5683 5682 5680 5679 5677 5674 5672 5670 5668 5667 5665 5663 5662 5660 5658 5656 5655 5653 5651 5649 5647 5645 5643 5641 5639 5637 5635 5633 5631 5628 5626 5623 5620 5618 5616 5613 5610 5607 5604 5601 5598 5595 5593 5591 5588 5586 5583 5580 5576 5574 5572 5568 5564 5560 5555 5550 5547 5544 5540
5716 5716 5715 5713 5711 5710 5708 5706 5705 5704 5702 5700 5699 5697 5695 5694 5693 5691 5689 5688 5686 5684 5683 5681 5680 5678 5676 5675 5674 5672 5670 5668 5665 5664 5662 5660 5659 5657 5655 5653 5651 5650 5648 5646 5643 5641 5640 5638 5636 5634 5631 5629 5627 5625 5623 5621 5618 5615 5613 5610 5607 5604 5602 5599 5596 5593 5590 5587 5585 5582 5580 5578 5575 5571 5568 5566 5564 5560 5555 5550 5546 5543 5539 5537 5534
5707 5707 5706 5704 5703 5701 5700 5699 5698 5697 5695 5693 5691 5689 5688 5686 5685 5683 5682 5680 5678 5677 5676 5674 5673 5671 5670 5668 5667 5665 5663 5661 5659 5657 5655 5654 5652 5650 5648 5646 5644 5642 5641 5639 5636 5634 5632 5630 5628 5626 5624 5621 5619 5617 5615 5613 5610 5608 5605 5602 5599 5597 5594 5592 5589 5585 5582 5579 5576 5574 5572 5569 5565 5562 5560 5557 5554 5550 5546 5542 5538 5535 5532 5529 5526
5699 5699 5698 5696 5695 5693 5692 5692 5691 5689 5687 5686 5684 5682 5681 5679 5677 5675 5674 5672 5671 5670 5668 5667 5666 5664 5663 5662 5660 5658 5656 5654 5652 5650 5649 5647 5645 5643 5641 5639 5637 5635 5633 5631 5629 5627 5625 5623 5620 5618 5616 5613 5611 5608 5606 5604 5602 5600 5597 5594 5591 5589 5587 5584 5581 5577 5574 5571 5568 5565 5562 5560 5557 5554 5551 5548 5544 5541 5537 5534 5530 5527 5524 5521 5517
5691 5690 5689 5688 5686 5685 5684 5684 5683 5682 5680 5678 5677 5676 5674 5672 5670 5668 5666 5665 5664 5663 5661 5660 5659 5657 5656 5654 5653 5652 5650 5647 5645 5643 5642 5640 5637 5635 5634 5632 5629 5627 5625 5623 5621 5619 5617 5615 5612 5610 5607 5605 5602 5600 5598 5595 5593 5590 5588 5585 5583 5581 5578 5576 5573 5569 5566 5563 5560 5556 5554 5552 5549 5545 5542 5538 5536 5533 5530 5526 5522 5519 5516 5512 5509
5683 5681 5680 5680 5678 5677 5677 5676 5675 5673 5672 5670 5669 5668 5666 5664 5662 5660 5659 5658 5656 5655 5653 5652 5651 5649 5648 5647 5645 5644 5642 5639 5638 5636 5634 5632 5630 5628 5626 5624 5622 5619 5617 5615 5613 5611 5608 5606 5604 5601 5599 5596 5593 5591 5588 5586 5583 5580 5577 5575 5573 5571 5569 5566 5563 5560 5557 5554 5551 5548 5546 5543 5539 5536 5533 5530 5528 5525 5522 5518 5514 5510 5507 5504 5500
5675 5673 5672 5671 5670 5669 5668 5668 5667 5665 5663 5662 5661 5659 5657 5656 5654 5652 5651 5650 5648 5647 5645 5644 5642 5641 5640 5638 5637 5636 5634 5631 5630 5628 5626 5624 5622 5620 5618 5615 5613 5611 5609 5606 5604 5602 5599 5597 5595 5592 5590 5587 5584 5581 5578 5576 5574 5571 5568 5566 5564 5562 5559 5557 5554 5551 5548 5546 5543 5540 5536 5533 5530 5528 5525 5523 5520 5517 5514 5510 5506 5502 5498 5495 5492
5666 5665 5665 5664 5662 5660 5659 5658 5658 5656 5655 5653 5652 5650 5648 5647 5645 5643 5642 5641 5640 5638 5636 5635 5633 5632 5630 5629 5628 5626 5624 5622 5621 5620 5618 5615 5613 5611 5609 5606 5604 5602 5599 5597 5595 5593 5590 5588 5585 5583 5581 5578 5574 5571 5569 5566 5565 5563 5560 5557 5555 5553 5551 5548 5545 5543 5540 5537 5534 5530 5527 5525 5523 5521 5518 5515 5512 5509 5506 5502 5497 5493 5489 5486 5483
5657 5657 5657 5655 5653 5652 5651 5649 5648 5647 5646 5644 5643 5641 5639 5638 5636 5634 5632 5631 5630 5628 5626 5625 5623 5622 5620 5619 5617 5616 5615 5613 5611 5610 5608 5606 5604 5602 5599 5597 5595 5592 5590 5588 5586 5583 5581 5578 5576 5574 5571 5568 5565 5562 5560 5558 5556 5553 5551 5548 5546 5543 5541 5539 5537 5534 5531 5528 5525 5522 5520 5518 5515 5513 5510 5507 5504 5501 5497 5494 5490 5485 5481 5477 5474
5648 5647 5646 5645 5643 5642 5641 5639 5638 5637 5635 5634 5633 5631 5630 5628 5626 5624 5622 5621 5619 5617 5615 5614 5613 5611 5609 5608 5607 5606 5604 5603 5601 5600 5598 5596 5594 5592 5589 5587 5585 5583 5580 5578 5575 5573 5571 5569 5567 5564 5561 5559 5557 5555 5552 5549 5547 5544 5542 5539 5536 5534 5532 5530 5527 5524 5521 5519 5517 5514 5512 5510 5507 5505 5502 5499 5496 5492 5489 5486 5482 5478 5474 5469 5465
5637 5636 5635 5634 5632 5631 5629 5628 5626 5625 5623 5622 5621 5619 5618 5617 5615 5613 5611 5609 5608 5606 5604 5603 5601 5600 5598 5597 5595 5594 5593 5592 5590 5589 5587 5585 5583 5581 5578 5577 5575 5572 5570 5568 5566 5564 5562 5560 5558 5555 5552 5550 5548 5545 5543 5540 5538 5536 5533 5530 5527 5525 5523 5520 5517 5515 5513 5511 5509 5507 5504 5502 5500 5497 5494 5490 5487 5485 5481 5478 5474 5470 5465 5461 5457
5626 5625 5624 5622 5620 5619 5617 5616 5614 5613 5611 5609 5608 5607 5605 5604 5603 5601 5599 5598 5596 5595 5593 5591 5590 5588 5586 5585 5584 5583 5581 5580 5579 5577 5575 5573 5572 5571 5568 5566 5565 5562 5560 5559 5557 5555 5552 5550 5548 5545 5543 5540 5538 5536 5534 5532 5529 5526 5523 5521 5518 5516 5513 5511 5509 5507 5505 5503 5501 5499 5497 5495 5492 5489 5486 5483 5479 5476 5473 5469 5465 5461 5457 5454 5450
5616 5615 5613 5611 5609 5607 5605 5604 5602 5601 5599 5597 5596 5594 5593 5591 5590 5589 5587 5586 5584 5583 5581 5580 5578 5576 5575 5574 5573 5571 5570 5568 5567 5565 5564 5562 5561 5560 5558 5555 5554 5552 5549 5547 5545 5543 5542 5539 5537 5534 5532 5531 5529 5526 5525 5522 5519 5516 5514 5512 5510 5507 5506 5504 5502 5500 5498 5496 5494 5491 5489 5486 5484 5481 5478 5475 5471 5468 5464 5460 5456 5453 5450 5446 5442
5606 5604 5602 5601 5599 5597 5595 5593 5591 5589 5588 5586 5584 5583 5581 5580 5578 5577 5576 5574 5573 5572 5570 5569 5568 5566 5565 5565 5563 5560 5559 5557 5556 5554 5553 5551 5549 5548 5546 5544 5542 5540 5538 5536 5534 5532 5531 5528 5526 5523 5522 5521 5519 5517 5515 5512 5510 5508 5506 5504 5502 5501 5499 5497 5495 5493 5490 5488 5486 5483 5481 5478 5476 5473 5469 5466 5463 5459 5456 5452 5448 5444 5441 5438 5434
5596 5594 5592 5591 5589 5587 5586 5584 5582 5580 5578 5576 5574 5573 5571 5569 5568 5566 5565 5564 5563 5562 5560 5559 5558 5556 5555 5554 5552 5549 5548 5547 5545 5544 5542 5540 5538 5536 5535 5533 5531 5529 5528 5526 5524 5522 5520 5518 5516 5514 5513 5512 5510 5508 5506 5504 5502 5500 5499 5497 5495 5494 5492 5489 5487 5485 5483 5480 5478 5475 5473 5470 5467 5464 5461 5458 5455 5451 5448 5444 5440 5436 5432 5429 5425
5586 5584 5582 5581 5579 5578 5576 5574 5572 5571 5569 5567 5565 5563 5561 5560 5558 5557 5555 5554 5553 5551 5550 5549 5548 5546 5545 5543 5541 5539 5538 5536 5535 5533 5532 5530 5528 5526 5524 5522 5521 5519 5518 5516 5514 5512 5510 5508 5507 5506 5505 5503 5501 5500 5498 5497 5495 5493 5491 5490 5488 5486 5483 5481 5479 5477 5475 5473 5470 5467 5465 5462 5459 5456 5453 5450 5447 5443 5440 5436 5432 5428 5425 5421 5417
5575 5573 5572 5570 5569 5567 5566 5564 5562 5561 5559 5557 5556 5554 5552 5550 5549 5547 5546 5544 5543 5542 5540 5539 5538 5537 5535 5533 5531 5529 5527 5526 5524 5523 5521 5519 5518 5516 5515 5513 5511 5510 5508 5506 5504 5502 5501 5500 5499 5498 5496 5495 5494 5492 5491 5489 5488 5486 5484 5482 5480 5478 5476 5474 5472 5470 5467 5465 5462 5460 5457 5454 5451 5448 5445 5442 5439 5435 5432 5429 5425 5421 5417 5413 5409
5563 5562 5560 5558 5557 5555 5554 5552 5551 5550 5549 5547 5546 5544 5542 5541 5539 5538 5537 5535 5534 5533 5531 5530 5528 5526 5525 5522 5520 5519 5517 5515 5514 5512 5510 5509 5508 5506 5505 5503 5501 5500 5498 5497 5496 5495 5494 5493 5491 5490 5489 5488 5486 5485 5483 5482 5480 5479 5477 5475 5473 5471 5469 5466 5464 5462 5459 5457 5454 5452 5449 5446 5443 5440 5437 5434 5431 5428 5424 5421 5417 5413 5409 5405 5400
5550 5549 5547 5546 5545 5543 5542 5540 5539 5538 5537 5536 5535 5533 5532 5531 5529 5528 5527 5526 5525 5523 5522 5520 5518 5517 5515 5513 5510 5508 5507 5505 5504 5502 5500 5499 5498 5497 5496 5494 5493 5492 5491 5490 5489 5488 5487 5486 5485 5484 5482 5481 5480 5478 5477 5475 5474 5472 5470 5468 5466 5464 5461 5459 5457 5454 5452 5449 5446 5444 5441 5438 5436 5433 5430 5427 5424 5420 5417 5413 5409 5405 5400 5396 5392
5536 5535 5534 5533 5532 5531 5530 5528 5527 5526 5526 5525 5524 5522 5521 5520 5519 5518 5517 5516 5515 5514 5512 5511 5508 5507 5505 5503 5501 5500 5498 5497 5495 5493 5492 5491 5490 5489 5488 5487 5487 5486 5485 5483 5482 5481 5480 5479 5478 5477 5476 5475 5473 5472 5470 5469 5467 5465 5463 5460 5458 5456 5454 5451 5449 5446 5444 5441 5438 5436 5433 5431 5428 5425 5422 5419 5416 5413 5409 5405 5401 5397 5392 5388 5384
5523 5522 5521 5520 5519 5518 5517 5516 5515 5515 5514 5513 5512 5512 5511 5510 5509 5508 5507 5507 5506 5505 5504 5501 5499 5497 5496 5494 5493 5492 5490 5489 5488 5486 5485 5485 5484 5483 5482 5481 5480 5479 5478 5477 5476 5474 5474 5473 5471 5471 5469 5468 5467 5465 5463 5461 5459 5457 5455 5453 5450 5448 5446 5443 5441 5438 5436 5433 5431 5428 5426 5423 5420 5417 5415 5412 5409 5405 5402 5397 5393 5388 5384 5380 5376
5511 5509 5508 5507 5506 5505 5504 5502 5502 5501 5501 5501 5501 5500 5500 5499 5498 5498 5498 5497 5497 5496 5494 5492 5490 5489 5487 5484 5484 5483 5482 5482 5481 5480 5479 5478 5477 5476 5475 5474 5473 5472 5471 5470 5469 5467 5466 5466 5464 5463 5462 5461 5459 5457 5455 5453 5451 5449 5447 5444 5442 5440 5438 5436 5433 5431 5428 5426 5423 5420 5418 5415 5413 5410 5407 5404 5401 5397 5393 5389 5385 5380 5376 5372 5368
5498 5497 5496 5494 5493 5492 5491 5490 5489 5488 5488 5488 5488 5488 5488 5487 5487 5488 5488 5488 5488 5487 5485 5483 5481 5480 5478 5476 5476 5475 5475 5474 5474 5473 5471 5470 5469 5468 5467 5466 5466 5465 5464 5463 5461 5460 5459 5458 5457 5456 5454 5453 5451 5449 5447 5445 5443 5441 5439 5436 5434 5432 5430 5428 5425 5423 5421 5418 5416 5413 5411 5408 5405 5403 5400 5396 5393 5389 5386 5381 5377 5373 5369 5364 5360
5487 5485 5484 5482 5481 5480 5478 5478 5478 5477 5476 5476 5476 5476 5476 5475 5476 5476 5477 5477 5478 5478 5476 5474 5472 5471 5470 5469 5469 5468 5467 5467 5466 5466 5464 5463 5462 5461 5460 5459 5459 5458 5456 5455 5454 5453 5452 5451 5449 5448 5447 5445 5443 5442 5439 5437 5435 5433 5431 5429 5426 5424 5422 5420 5418 5416 5414 5411 5409 5406 5404 5401 5398 5395 5392 5388 5385 5381 5378 5374 5370 5366 5362 5358 5353
5475 5474 5472 5470 5469 5468 5467 5467 5467 5466 5466 5466 5466 5466 5465 5465 5465 5465 5466 5467 5468 5467 5467 5465 5464 5463 5463 5462 5461 5461 5459 5459 5458 5457 5457 5456 5455 5454 5453 5452 5451 5450 5449 5448 5447 5446 5445 5443 5442 5441 5440 5438 5436 5434 5432 5430 5428 5426 5424 5421 5419 5417 5415 5413 5411 5409 5407 5404 5402 5399 5396 5393 5390 5387 5384 5380 5377 5373 5370 5366 5362 5359 5354 5350 5345
5463 5462 5461 5460 5459 5458 5457 5457 5457 5458 5458 5458 5458 5458 5457 5457 5457 5456 5457 5458 5458 5457 5457 5456 5455 5455 5454 5454 5453 5453 5451 5450 5449 5448 5448 5448 5447 5446 5445 5445 5444 5443 5442 5441 5440 5439 5438 5436 5435 5434 5432 5431 5429 5427 5425 5423 5421 5418 5416 5414 5412 5410 5408 5406 5404 5402 5400 5397 5394 5391 5389 5386 5383 5380 5376 5372 5369 5365 5362 5358 5354 5351 5347 5342 5338
5452 5451 5451 5450 5449 5448 5448 5448 5448 5449 5449 5450 5450 5450 5449 5449 5448 5448 5449 5449 5449 5448 5448 5447 5446 5446 5445 5445 5445 5444 5443 5443 5442 5441 5440 5440 5439 5439 5438 5437 5437 5436 5435 5434 5433 5431 5430 5429 5428 5427 5425 5424 5422 5420 5418 5415 5413 5411 5409 5407 5405 5403 5401 5399 5397 5395 5392 5390 5387 5384 5382 5378 5375 5372 5368 5364 5360 5357 5353 5350 5346 5342 5338 5334 5330
5443 5442 5441 5440 5440 5440 5440 5440 5440 5440 5440 5440 5440 5440 5440 5440 5440 5440 5440 5440 5440 5440 5439 5438 5438 5437 5437 5437 5437 5436 5436 5435 5434 5434 5433 5432 5432 5431 5430 5430 5429 5429 5428 5427 5425 5424 5423 5422 5421 5420 5418 5416 5414 5412 5410 5408 5406 5404 5402 5400 5398 5397 5395 5393 5390 5388 5385 5383 5380 5377 5374 5370 5367 5363 5359 5356 5352 5349 5345 5342 5338 5334 5330 5326 5321
5433 5432 5431 5431 5430 5431 5431 5431 5431 5431 5432 5432 5432 5432 5432 5431 5431 5431 5431 5431 5431 5431 5431 5430 5429 5428 5428 5429 5429 5428 5428 5428 5427 5426 5425 5424 5424 5424 5424 5423 5422 5421 5421 5420 5418 5417 5416 5415 5413 5412 5410 5408 5406 5404 5402 5400 5399 5397 5395 5393 5392 5390 5387 5385 5383 5380 5378 5375 5372 5369 5365 5362 5358 5354 5350 5347 5343 5340 5337 5333 5329 5325 5321 5317 5312
5424 5423 5422 5421 5421 5422 5423 5423 5423 5423 5423 5424 5424 5424 5423 5423 5423 5423 5422 5422 5422 5422 5422 5422 5422 5421 5420 5421 5421 5421 5420 5420 5419 5418 5418 5418 5418 5418 5417 5416 5415 5414 5413 5412 5410 5409 5408 5407 5405 5404 5402 5400 5398 5397 5395 5393 5392 5390 5389 5387 5384 5382 5380 5377 5375 5372 5370 5367 5364 5360 5356 5353 5349 5345 5341 5338 5334 5331 5327 5323 5319 5315 5311 5307 5303
5414 5414 5413 5413 5413 5414 5414 5415 5415 5415 5415 5416 5416 5416 5415 5415 5415 5415 5415 5415 5415 5415 5415 5415 5414 5413 5413 5413 5413 5413 5412 5412 5411 5411 5411 5412 5411 5410 5409 5408 5407 5406 5405 5403 5402 5402 5400 5399 5397 5396 5394 5392 5391 5390 5388 5387 5385 5383 5381 5379 5377 5375 5372 5369 5367 5364 5361 5358 5355 5351 5347 5343 5340 5336 5332 5329 5325 5322 5318 5314 5310 5306 5301 5297 5293
5405 5405 5405 5404 5404 5405 5407 5408 5407 5407 5408 5408 5409 5409 5408 5408 5409 5409 5409 5409 5409 5408 5408 5408 5407 5407 5407 5406 5406 5406 5405 5404 5404 5405 5405 5404 5403 5402 5401 5400 5399 5398 5397 5396 5395 5394 5393 5391 5389 5388 5386 5385 5384 5383 5381 5380 5378 5376 5374 5371 5369 5367 5364 5361 5358 5355 5352 5349 5346 5342 5338 5334 5331 5327 5323 5319 5316 5312 5308 5304 5300 5296 5292 5288 5283
5397 5397 5397 5396 5397 5398 5399 5400 5400 5400 5400 5401 5401 5402 5402 5402 5402 5402 5402 5402 5401 5401 5401 5401 5401 5400 5400 5399 5399 5398 5398 5398 5397 5397 5397 5396 5395 5395 5394 5393 5391 5390 5389 5388 5387 5386 5385 5383 5382 5381 5380 5379 5377 5376 5374 5372 5370 5368 5366 5363 5361 5358 5355 5352 5349 5346 5343 5340 5336 5332 5329 5325 5321 5318 5314 5310 5306 5302 5298 5294 5290 5286 5282 5278 5274
5390 5390 5389 5389 5389 5390 5392 5393 5394 5393 5393 5394 5394 5395 5395 5395 5395 5395 5395 5395 5394 5394 5394 5394 5393 5393 5392 5392 5392 5392 5391 5391 5390 5390 5389 5389 5388 5387 5386 5385 5384 5383 5382 5381 5380 5379 5377 5376 5375 5374 5373 5372 5370 5368 5366 5364 5362 5360 5357 5354 5352 5349 5346 5343 5340 5337 5334 5330 5326 5322 5319 5315 5312 5308 5304 5299 5295 5292 5288 5284 5280 5276 5272 5268 5264
5383 5383 5383 5382 5382 5383 5384 5386 5387 5387 5387 5388 5388 5388 5389 5388 5388 5388 5388 5388 5388 5387 5387 5387 5386 5385 5385 5385 5385 5385 5385 5384 5384 5383 5382 5381 5381 5380 5379 5378 5377 5376 5375 5374 5373 5372 5371 5370 5368 5367 5366 5364 5362 5360 5358 5356 5353 5351 5348 5346 5343 5340 5337 5334 5331 5327 5324 5320 5316 5312 5309 5305 5301 5298 5293 5289 5285 5282 5278 5274 5270 5266 5262 5258 5254
5376 5376 5376 5376 5376 5377 5377 5378 5380 5381 5381 5382 5382 5382 5382 5382 5382 5382 5382 5381 5381 5381 5381 5381 5380 5379 5378 5379 5379 5379 5378 5378 5377 5376 5375 5374 5373 5372 5371 5370 5369 5368 5368 5367 5367 5366 5364 5363 5361 5360 5358 5356 5354 5352 5350 5347 5345 5342 5339 5337 5333 5330 5327 5323 5320 5317 5313 5310 5306 5302 5298 5295 5291 5287 5283 5279 5275 5271 5267 5263 5259 5256 5252 5247 5243
5368 5369 5369 5369 5370 5370 5370 5371 5373 5374 5375 5375 5375 5375 5375 5375 5375 5375 5375 5375 5375 5375 5375 5375 5374 5373 5372 5372 5372 5372 5372 5371 5370 5369 5368 5367 5366 5365 5364 5363 5362 5362 5361 5360 5359 5358 5357 5355 5354 5352 5350 5348 5346 5343 5341 5338 5336 5333 5330 5327 5323 5319 5316 5313 5309 5306 5302 5299 5295 5292 5288 5284 5280 5276 5272 5268 5264 5260 5257 5252 5249 5245 5241 5237 5233
5361 5362 5363 5363 5364 5364 5364 5365 5366 5367 5368 5368 5369 5369 5369 5369 5369 5368 5368 5368 5368 5368 5368 5368 5367 5366 5366 5365 5365 5365 5364 5363 5363 5362 5361 5360 5359 5358 5357 5356 5356 5355 5354 5353 5352 5350 5349 5347 5345 5344 5342 5339 5337 5335 5332 5329 5326 5323 5319 5316 5313 5309 5306 5302 5299 5295 5291 5287 5284 5281 5277 5273 5270 5265 5261 5257 5253 5249 5245 5241 5237 5234 5230 5226 5222
5355 5356 5357 5357 5358 5358 5358 5359 5360 5360 5361 5361 5362 5362 5362 5362 5361 5361 5361 5361 5361 5361 5361 5361 5360 5360 5359 5358 5358 5357 5357 5356 5356 5355 5354 5353 5352 5351 5350 5349 5348 5347 5346 5345 5344 5343 5341 5339 5337 5335 5333 5331 5328 5325 5322 5319 5316 5313 5310 5306 5302 5299 5295 5292 5288 5284 5280 5276 5273 5269 5266 5262 5258 5254 5249 5245 5241 5237 5234 5230 5226 5222 5218 5215 5211
5348 5349 5350 5351 5352 5352 5352 5353 5353 5354 5354 5354 5354 5355 5355 5355 5354 5354 5354 5354 5354 5354 5354 5353 5353 5353 5352 5351 5351 5350 5350 5349 5348 5348 5347 5346 5345 5344 5343 5343 5341 5340 5339 5338 5336 5335 5333 5331 5329 5326 5324 5321 5318 5315 5312 5309 5306 5303 5299 5295 5292 5288 5284 5280 5276 5272 5268 5265 5261 5258 5254 5250 5246 5241 5237 5233 5229 5225 5222 5218 5214 5210 5207 5204 5200
5340 5342 5343 5344 5345 5346 5346 5347 5347 5347 5347 5347 5348 5348 5348 5348 5347 5347 5347 5347 5347 5347 5346 5346 5346 5346 5345 5345 5344 5343 5343 5342 5341 5340 5340 5339 5338 5338 5337 5336 5334 5333 5332 5330 5328 5327 5324 5322 5320 5317 5314 5311 5308 5305 5302 5299 5295 5292 5288 5284 5280 5277 5273 5269 5265 5261 5257 5253 5250 5246 5241 5237 5233 5228 5224 5220 5216 5213 5210 5206 5203 5200 5196 5193 5190
5334 5335 5336 5337 5338 5339 5340 5340 5340 5340 5340 5341 5341 5341 5341 5341 5341 5340 5340 5340 5340 5340 5340 5339 5339 5339 5338 5338 5337 5337 5336 5335 5335 5334 5333 5332 5331 5331 5329 5328 5326 5325 5323 5322 5320 5318 5316 5313 5311 5308 5305 5302 5298 5295 5292 5288 5284 5281 5277 5273 5269 5265 5261 5257 5253 5249 5245 5241 5238 5233 5229 5225 5220 5216 5212 5208 5204 5201 5198 5195 5192 5189 5186 5183 5180